Location: Asheville, NC
(35.6000°N, 82.5500°W)
Time: 12:05:32

Vanguard 1 Rocket - Pass Details

Date: 09 March 2018
Orbit: 655 x 4222 km, 34.3° (Epoch: 22 March)

Event Time Altitude Azimuth Distance (km) Brightness Sun altitude
Rises 20:06:14 0° 254° (WSW) 4,369 12.0 -19.8°
Reaches altitude 10° 20:08:32 10° 253° (WSW) 3,691 11.4 -20.2°
Maximum altitude 20:18:41 81° 168° (SSE) 2,386 9.3 -22.3°
Enters shadow 20:30:18 29° 86° (E) 4,723 10.4 -24.6°
Drops below altitude 10° 20:39:13 10° 85° (E) 6,843 - -26.3°
Sets 20:45:24 0° 85° (E) 8,198 - -27.5°
